Weather History for KCNU - July, 2013

Change the Weather History Date:

Wednesday, July 24, 2013

  Actual Average Record
Temperature  
Mean Temperature 80 °F 80 °F  
Max Temperature 92 °F 90 °F 111 °F (1934)
Min Temperature 68 °F 69 °F 53 °F (2003)
Degree Days  
Heating Degree Days 0 0  
Month to date heating degree days 0 0  
Since 1 June heating degree days 10 6  
Since 1 July heating degree days 0 0  
Cooling Degree Days 15 15  
Month to date cooling degree days 363 347  
Year to date cooling degree days 800 772  
Since 1 June cooling degree days 677 639  
Growing Degree Days 31 (Base 50)    
Moisture  
Dew Point 64 °F    
Average Humidity 60    
Maximum Humidity 87    
Minimum Humidity 32    
Precipitation  
Precipitation 0.00 in 0.13 in 2.02 in (1968)
Month to date precipitation 0.91 3.54  
Year to date precipitation 22.75 25.97  
Sea Level Pressure  
Sea Level Pressure 29.95 in    
Wind  
Wind Speed 7 mph (NE)    
Max Wind Speed 17 mph    
Max Gust Speed 24 mph    
Visibility 10 miles    
Events      
T = Trace of Precipitation, MM = Missing Value Source: NWS Daily Summary

Daily Weather History Graph

Daily Weather History Graph

Search for Another Location

Airport or City:

Trip Planner

Search our weather history database for the weather conditions in past years. The results will help you decide how hot, cold, wet, or windy it might be!

Date:

Astronomy

Jul. 24, 2013 Rise Set
Actual Time 6:19 AM CDT 8:37 PM CDT
Civil Twilight 5:49 AM CDT 9:06 PM CDT
Nautical Twilight 5:13 AM CDT 9:43 PM CDT
Astronomical Twilight 4:33 AM CDT 10:22 PM CDT
Moon 9:48 PM CDT (7/24) 8:36 AM CDT (7/24)
Length of Visible Light 15h 17m
Length of Day
14h 17m
Waning Gibbous, 94% of the Moon is Illuminated
Jul 24
Waning Gibbous
Jul 29
Last Quarter
Aug 6
New
Aug 14
First Quarter
Aug 20
Full

Hourly Weather History & Observations

Time (CDT) Temp. Heat Index Dew Point Humidity Pressure Visibility Wind Dir Wind Speed Gust Speed Precip Events Conditions
12:06 AM 80.6 °F 82.7 °F 66.2 °F 61% 29.90 in 10.0 mi NE 6.9 mph - N/A   Partly Cloudy
12:52 AM 80.1 °F 82.3 °F 66.9 °F 64% 29.84 in 10.0 mi NE 8.1 mph - N/A   Overcast
1:52 AM 79.0 °F - 68.0 °F 69% 29.88 in 10.0 mi ENE 10.4 mph 17.3 mph N/A   Mostly Cloudy
2:52 AM 77.0 °F - 68.0 °F 74% 29.88 in 10.0 mi East 6.9 mph - N/A   Partly Cloudy
3:52 AM 75.0 °F - 69.1 °F 82% 29.90 in 10.0 mi SE 3.5 mph - N/A   Scattered Clouds
4:00 AM 75.2 °F - 69.8 °F 83% 29.93 in 10.0 mi SE 3.5 mph - N/A   Mostly Cloudy
4:27 AM 75.2 °F - 69.8 °F 83% 29.93 in 10.0 mi Calm Calm - N/A   Overcast
4:52 AM 75.0 °F - 70.0 °F 84% 29.89 in 10.0 mi Calm Calm - N/A   Overcast
5:52 AM 73.0 °F - 69.1 °F 87% 29.92 in 10.0 mi SW 4.6 mph - N/A   Overcast
6:45 AM 73.4 °F - 66.2 °F 78% 29.98 in 10.0 mi NE 9.2 mph - N/A   Overcast
6:52 AM 73.0 °F - 64.9 °F 76% 29.95 in 10.0 mi NE 6.9 mph - N/A   Overcast
7:32 AM 71.6 °F - 64.4 °F 78% 30.01 in 10.0 mi NNE 8.1 mph - N/A   Mostly Cloudy
7:52 AM 73.0 °F - 64.0 °F 73% 29.97 in 10.0 mi North 8.1 mph - N/A   Mostly Cloudy
8:52 AM 75.9 °F - 64.9 °F 69% 29.98 in 10.0 mi NNE 5.8 mph - N/A   Clear
9:52 AM 77.0 °F - 64.9 °F 66% 29.99 in 10.0 mi North 8.1 mph - N/A   Overcast
10:52 AM 78.1 °F - 64.9 °F 64% 30.00 in 10.0 mi North 8.1 mph - N/A   Overcast
11:52 AM 81.0 °F 83.3 °F 66.9 °F 62% 30.00 in 10.0 mi NNW 8.1 mph - N/A   Mostly Cloudy
12:52 PM 84.0 °F 87.0 °F 68.0 °F 58% 29.99 in 10.0 mi NNW 9.2 mph - N/A   Partly Cloudy
1:52 PM 86.0 °F 88.8 °F 66.9 °F 53% 29.98 in 10.0 mi NNE 12.7 mph 19.6 mph N/A   Clear
2:52 PM 89.1 °F 90.0 °F 63.0 °F 42% 29.97 in 10.0 mi North 11.5 mph - N/A   Clear
3:52 PM 91.0 °F 90.0 °F 57.9 °F 33% 29.96 in 10.0 mi North 11.5 mph - N/A   Clear
4:52 PM 91.0 °F 90.0 °F 57.9 °F 33% 29.95 in 10.0 mi NNE 9.2 mph - N/A   Clear
5:52 PM 91.0 °F 89.7 °F 57.0 °F 32% 29.95 in 10.0 mi NNE 9.2 mph 16.1 mph N/A   Clear
6:52 PM 88.0 °F 86.1 °F 55.0 °F 32% 29.94 in 10.0 mi East 8.1 mph - N/A   Clear
7:52 PM 84.9 °F 83.6 °F 55.0 °F 36% 29.95 in 10.0 mi ENE 6.9 mph - N/A   Clear
8:52 PM 80.1 °F 80.2 °F 55.9 °F 43% 29.97 in 10.0 mi East 5.8 mph - N/A   Clear
9:52 PM 75.9 °F - 57.0 °F 52% 29.98 in 10.0 mi East 4.6 mph - N/A   Clear
10:52 PM 73.0 °F - 57.9 °F 59% 30.00 in 10.0 mi ESE 4.6 mph - N/A   Clear
11:52 PM 70.0 °F - 59.0 °F 68% 30.01 in 10.0 mi ESE 3.5 mph - N/A   Clear